Temperature
16 13 13 13 14 16 15 15 15 15 15 13 10 9 8 9 9 8 8 7 7 7 7 7 6 6 6 6 6 5 5 5 5 5 6 6 7 7 8 9 9 9 10 10
13 13 14 14 14 14 14 14 13 13 14 12 9 8 8 8 8 7 7 6 6 6 6 6 6 5 5 5 5 5 5 4 4 4 4 4 4 5 5 6 7 8 8 9
13 14 14 14 12 12 13 13 13 13 12 11 8 8 8 7 7 6 6 6 5 5 5 5 5 4 4 4 4 4 4 4 4 4 4 3 4 4 4 5 5 6 7 7
13 13 13 13 13 12 12 13 13 12 11 10 10 7 7 6 5 5 5 5 5 4 4 4 4 3 3 3 3 3 2 2 3 3 3 2 2 2 3 3 3 4 5 6
13 13 12 12 12 12 12 11 11 11 10 10 10 8 6 6 5 4 4 4 4 4 3 3 3 2 2 2 2 1 1 1 1 1 1 1 1 1 2 2 2 3 4 5
13 14 13 12 12 12 10 10 11 9 9 10 11 8 4 4 4 4 4 4 3 3 3 3 2 2 1 1 0 -0 -0 -0 -0 -0 -0 0 0 0 1 1 1 2 2 4
11 12 12 12 11 10 9 8 9 10 9 10 8 5 4 5 5 4 4 3 3 2 2 1 1 0 0 -0 -1 -1 -1 -1 -1 -1 -1 -1 -0 -0 -0 -0 0 0 1 2
9 10 11 11 11 10 10 9 9 9 8 7 7 4 4 4 5 4 4 3 2 1 1 0 -1 -1 -1 -2 -2 -2 -2 -2 -2 -2 -1 -1 -1 -1 -1 -1 -1 -1 -1 0
8 9 10 11 12 11 10 9 9 7 7 6 6 4 3 4 4 3 3 2 1 0 -0 -1 -2 -3 -3 -3 -3 -3 -3 -3 -3 -2 -2 -2 -1 -2 -2 -3 -3 -3 -3 -2
9 8 9 9 12 11 10 9 6 7 7 7 6 4 3 2 2 2 2 1 0 -1 -2 -2 -3 -3 -4 -4 -4 -4 -4 -4 -4 -4 -4 -4 -4 -4 -5 -5 -5 -4 -4 -3
7 8 7 8 10 9 9 9 7 6 5 5 5 4 4 3 2 1 1 1 -1 -2 -2 -3 -3 -4 -5 -5 -5 -6 -6 -6 -6 -6 -6 -6 -6 -6 -5 -5 -5 -4 -4 -3
6 6 6 7 8 9 9 7 6 5 4 4 3 3 3 3 2 2 1 -0 -1 -3 -3 -4 -5 -5 -6 -6 -7 -7 -7 -7 -8 -7 -7 -7 -6 -6 -5 -5 -5 -4 -3 -2
6 6 6 8 9 7 7 7 7 5 3 2 2 2 3 2 2 1 0 -1 -2 -3 -4 -5 -6 -6 -7 -8 -8 -8 -8 -9 -8 -8 -8 -7 -7 -6 -6 -6 -5 -5 -4 -3
7 5 6 8 7 6 5 5 6 5 2 2 2 1 1 1 0 1 -0 -2 -3 -4 -5 -6 -7 -7 -8 -9 -9 -9 -9 -9 -9 -9 -9 -8 -8 -7 -7 -6 -6 -5 -5 -4
5 4 5 5 5 5 4 4 4 4 3 1 1 1 0 -0 -0 -0 -1 -3 -4 -5 -5 -7 -8 -9 -9 -10 -10 -10 -10 -10 -10 -9 -9 -9 -8 -8 -7 -7 -7 -6 -6 -5
4 4 4 4 4 3 3 3 3 3 3 2 1 1 1 1 0 -0 -3 -5 -5 -6 -7 -8 -9 -10 -10 -11 -11 -11 -11 -10 -10 -10 -10 -9 -9 -9 -8 -8 -8 -7 -7 -6
3 3 3 1 1 3 1 2 2 3 3 1 0 -0 0 -1 -1 -1 -4 -6 -6 -7 -8 -9 -10 -11 -11 -12 -12 -11 -11 -11 -10 -10 -10 -10 -10 -10 -9 -9 -9 -8 -8 -7
3 3 1 0 1 2 2 3 3 2 2 1 1 -0 0 -1 -1 -2 -5 -6 -7 -8 -9 -10 -10 -11 -12 -12 -12 -12 -11 -11 -11 -10 -10 -11 -10 -10 -10 -10 -9 -9 -9 -8
3 2 -0 -1 -0 -0 2 3 3 2 1 1 0 -0 -0 -2 -2 -3 -5 -6 -7 -8 -9 -10 -11 -12 -12 -12 -12 -12 -12 -11 -11 -11 -11 -11 -11 -11 -11 -10 -10 -10 -9 -9
2 0 -1 -1 0 0 1 3 4 2 0 1 0 -1 -2 -4 -4 -4 -5 -7 -8 -9 -10 -10 -11 -11 -12 -12 -12 -12 -12 -12 -12 -12 -12 -12 -12 -12 -12 -11 -11 -11 -10 -10
2 0 -1 -1 -2 -1 1 3 2 -0 -0 2 1 -2 -3 -5 -5 -6 -7 -8 -9 -10 -10 -10 -11 -12 -12 -12 -12 -13 -13 -14 -13 -13 -13 -13 -13 -13 -13 -12 -12 -12 -11 -11
0 -1 -1 -2 -3 -2 2 2 1 1 2 1 -1 -3 -4 -5 -6 -7 -8 -9 -10 -10 -10 -10 -11 -12 -12 -13 -13 -14 -14 -14 -14 -14 -14 -14 -14 -14 -14 -13 -13 -12 -12 -12
-0 -0 -1 -1 -0 2 3 3 2 2 1 -0 -1 -3 -4 -6 -7 -8 -9 -9 -10 -10 -10 -11 -12 -12 -13 -13 -14 -14 -15 -15 -15 -14 -15 -15 -15 -15 -15 -14 -14 -13 -13 -12
0 1 -1 -0 -0 2 2 2 2 1 1 -0 -2 -3 -5 -6 -8 -8 -9 -9 -10 -10 -11 -12 -12 -13 -13 -14 -14 -15 -15 -15 -15 -15 -15 -15 -15 -15 -15 -15 -15 -14 -14 -13
0 -0 -1 -0 1 2 2 2 1 1 -0 -2 -3 -4 -6 -7 -8 -9 -9 -10 -10 -11 -12 -12 -13 -13 -14 -14 -15 -15 -15 -15 -15 -15 -15 -15 -15 -15 -15 -15 -15 -15 -15 -14
-0 -1 -1 -1 1 2 2 1 1 -0 -1 -3 -4 -5 -7 -8 -8 -9 -9 -10 -11 -11 -12 -12 -13 -13 -14 -14 -14 -15 -15 -15 -15 -15 -15 -16 -15 -16 -16 -15 -15 -15 -15 -15
Wind_Speed
6 8 6 7 5 1 1 2 3 2 5 6 12 11 7 6 9 10 10 11 13 13 13 13 12 12 12 13 13 14 15 14 12 9 8 8 9 10 10 10 18 21 22 22
8 7 7 4 7 8 5 3 4 5 7 6 11 9 6 7 8 9 10 11 11 13 15 15 15 14 15 16 16 17 17 16 14 9 6 4 4 5 6 6 12 19 21 21
8 4 5 7 9 8 5 2 2 5 7 5 9 5 5 7 10 12 10 10 11 14 14 15 14 13 14 15 16 17 17 18 16 13 7 7 5 5 7 10 13 15 21 20
7 6 7 8 6 5 4 5 6 6 3 3 6 5 5 5 10 11 11 11 12 12 12 13 13 14 13 13 13 14 16 17 16 13 9 9 9 7 7 8 10 15 18 18
5 5 7 7 6 5 7 9 7 4 5 2 1 5 2 3 7 9 9 10 12 12 13 13 13 12 12 12 12 13 15 14 14 13 11 10 9 8 9 11 13 14 15 16
4 2 4 5 5 5 7 7 5 5 5 1 2 5 2 4 4 6 8 10 12 13 13 12 12 13 12 12 13 14 15 13 13 13 13 12 12 14 16 16 15 15 14 15
8 5 7 5 8 9 10 8 7 8 6 4 4 8 4 4 4 6 8 9 11 12 12 11 13 15 15 15 15 15 15 14 14 14 15 14 14 14 15 16 16 17 15 15
8 6 7 6 3 4 6 6 4 2 5 6 4 6 6 4 3 5 6 8 10 11 11 11 13 15 16 17 17 16 16 15 17 17 17 15 15 14 14 16 17 17 15 16
5 6 6 5 2 2 4 3 2 4 4 5 3 5 6 3 6 8 9 9 10 10 10 11 13 14 15 16 16 17 18 19 20 19 18 16 17 17 18 18 18 16 17 18
1 4 6 7 3 4 2 2 5 1 4 6 4 3 3 8 9 9 10 11 11 10 11 12 14 17 17 17 17 18 19 21 20 20 18 17 18 18 19 18 20 20 20 20
4 1 7 6 4 4 5 4 4 1 3 4 5 1 4 5 7 9 10 11 11 12 14 15 16 17 17 18 19 20 20 20 21 21 20 19 18 18 18 18 20 20 19 20
4 2 4 6 5 3 3 4 4 1 5 3 3 3 6 4 6 7 10 10 9 9 10 11 14 16 17 19 19 20 20 20 21 20 20 19 19 19 18 19 21 21 21 19
3 3 4 5 3 7 5 3 2 3 1 2 3 4 3 8 12 14 17 15 12 13 14 14 15 16 17 18 20 20 20 20 20 20 19 19 19 19 19 19 20 22 22 20
3 1 3 4 3 4 7 6 3 1 0 3 4 8 9 15 17 18 17 12 11 13 16 17 17 17 17 18 19 19 19 18 19 18 18 18 18 19 18 18 19 20 20 20
4 1 3 4 3 3 3 5 3 4 3 1 6 7 7 10 11 12 9 9 13 15 17 18 18 18 17 18 17 17 17 18 18 17 16 15 15 16 17 17 18 17 18 18
3 2 4 5 5 5 5 7 6 5 2 3 5 6 7 10 10 14 8 11 14 15 16 17 18 18 17 17 17 17 16 17 16 16 15 15 15 15 16 15 15 16 15 15
2 2 1 4 6 3 2 3 3 2 1 1 3 7 10 10 15 14 7 11 14 15 15 15 16 16 15 14 15 15 15 15 16 16 16 15 15 15 15 16 15 14 14 12
4 2 2 2 6 1 4 3 1 3 3 3 6 8 8 8 12 2 5 9 12 12 12 12 13 14 13 12 13 13 13 14 14 15 16 16 15 15 15 15 15 13 11 10
3 4 3 2 3 6 3 4 4 4 5 4 5 9 9 10 6 2 7 10 9 8 8 8 9 10 12 12 12 12 12 13 14 15 16 16 14 14 14 15 14 11 11 10
4 5 5 3 1 5 5 6 5 1 5 5 5 7 8 11 11 4 9 10 8 7 7 8 9 9 11 12 12 10 11 12 14 15 15 15 14 13 12 14 13 11 10 11
0 2 3 4 5 7 6 6 1 2 6 7 4 5 6 5 6 9 10 8 7 8 8 9 9 9 10 11 11 10 10 12 14 15 14 14 14 13 11 12 11 11 10 10
7 5 5 5 4 8 5 1 2 6 5 2 2 3 6 7 8 9 9 8 9 10 10 10 9 10 10 10 11 11 11 13 14 14 15 14 13 13 13 12 12 11 10 9
7 8 6 8 8 5 4 3 4 3 2 1 2 4 5 5 6 9 8 7 8 9 9 8 9 10 9 9 10 11 13 13 15 14 14 13 14 12 12 11 10 10 9 9
4 4 4 4 6 4 3 4 2 1 3 3 2 3 1 3 5 6 8 9 8 8 7 8 9 10 9 9 11 10 12 14 13 13 12 12 10 11 11 11 11 10 10 10
6 5 4 4 5 2 2 2 2 3 4 3 1 1 2 4 5 5 6 7 8 9 8 8 8 8 9 10 11 12 12 12 11 11 11 11 10 9 8 10 9 11 8 12
4 6 7 7 6 4 5 3 3 4 4 3 1 3 5 6 4 5 5 6 6 7 7 8 8 10 10 10 11 11 11 11 10 12 11 10 8 7 8 7 8 14 15 18
Wind_Direction
39 53 20 335 342 343 283 307 320 304 21 62 106 104 84 66 66 59 46 38 34 24 6 2 359 354 354 355 354 352 349 345 343 343 349 354 355 350 346 343 341 339 337 333
47 28 336 24 39 45 40 59 6 327 2 67 99 88 72 58 59 54 48 38 26 17 8 3 358 355 355 355 354 352 347 338 332 325 318 317 318 316 320 321 335 337 335 328
83 347 1 52 37 16 2 125 282 291 340 78 112 88 83 57 55 49 40 34 24 19 5 359 358 355 356 359 356 353 346 342 335 328 322 323 319 319 341 344 340 335 331 326
56 10 30 38 25 10 304 258 268 265 297 244 170 168 166 91 54 35 23 22 17 9 1 355 356 357 358 355 353 349 346 343 340 338 341 342 347 340 332 330 326 327 325 323
49 23 32 18 343 340 278 286 286 257 189 253 344 124 164 71 47 19 13 15 12 3 354 350 355 355 352 349 348 344 342 340 342 348 350 347 343 334 329 329 326 324 322 318
46 51 38 340 332 331 316 343 21 60 84 51 349 131 48 27 48 21 13 11 7 356 349 350 356 354 349 346 346 345 344 344 350 355 354 349 343 338 335 332 327 324 319 315
0 11 360 4 3 2 16 30 18 6 6 277 58 94 122 102 75 44 18 8 358 347 344 353 358 353 348 346 347 347 347 350 357 357 355 347 345 340 335 332 327 322 317 313
19 341 343 358 26 347 7 70 86 298 276 293 21 118 147 140 77 34 16 4 352 345 348 359 356 351 347 345 346 347 350 353 355 355 351 346 348 344 337 332 326 318 313 308
30 300 314 330 337 74 17 44 161 182 277 276 265 140 172 61 22 12 1 353 346 342 347 354 353 350 346 345 347 349 353 355 354 351 347 345 346 341 335 330 324 319 313 308
98 287 297 311 11 15 39 126 61 61 287 285 289 120 1 358 349 350 344 340 339 344 351 355 357 355 352 352 354 356 359 355 350 348 346 344 342 338 333 328 325 319 313 307
48 262 311 357 43 335 359 48 59 346 220 247 288 5 45 12 352 341 334 338 345 351 353 355 356 355 354 356 358 356 355 353 349 346 344 343 341 336 333 333 330 324 317 311
12 109 287 280 287 342 64 85 91 331 291 260 254 212 75 20 334 326 332 340 349 351 349 352 354 355 355 355 354 353 353 350 347 344 343 343 342 338 338 342 342 338 331 323
17 92 334 345 359 8 23 35 140 163 184 269 263 271 6 355 350 350 351 353 357 357 355 356 356 354 354 355 353 350 350 348 344 344 344 345 344 341 344 348 350 350 347 344
84 93 197 245 292 333 312 312 288 134 108 302 286 299 326 351 345 340 343 351 353 353 354 355 353 352 354 356 352 347 345 342 341 341 343 345 345 345 348 350 352 355 356 358
78 2 294 285 356 356 330 338 9 83 102 171 288 293 313 322 310 315 332 350 351 351 353 354 352 350 352 353 348 345 340 338 338 338 337 339 342 343 346 349 351 355 0 4
77 57 348 316 13 25 50 24 49 73 75 312 309 296 289 296 308 333 0 357 351 350 351 352 351 349 350 349 344 341 339 338 339 339 338 339 343 345 345 346 349 352 358 4
68 84 23 287 332 61 6 358 32 2 346 289 275 272 293 312 329 332 357 355 350 349 351 351 349 347 344 341 338 336 336 337 341 342 341 341 344 346 347 348 349 350 352 358
121 119 139 304 16 324 238 215 219 268 228 203 255 274 285 297 303 348 34 359 350 351 354 354 349 343 336 332 333 332 334 339 342 344 344 342 344 345 347 349 350 346 345 350
130 138 111 82 331 285 256 264 256 261 255 210 277 297 312 322 308 146 32 10 355 3 2 354 345 333 329 330 330 330 335 341 344 345 343 342 342 345 350 349 348 346 347 350
72 90 109 115 263 262 242 254 270 255 276 250 285 310 325 342 342 325 6 4 6 13 2 351 340 331 333 333 333 330 335 343 344 342 339 340 342 342 350 351 346 346 351 357
182 73 131 175 229 266 250 267 45 86 275 294 321 331 329 322 292 321 349 355 9 10 357 345 334 328 327 330 335 334 336 342 341 340 340 341 343 341 349 348 347 345 350 356
187 176 193 166 209 261 249 258 177 240 260 288 314 302 293 287 310 335 343 353 6 360 351 343 337 333 327 329 337 340 341 339 340 340 341 340 343 348 351 343 345 347 349 347
195 190 187 189 213 229 234 223 218 227 252 180 220 278 288 304 330 340 347 358 1 351 341 334 330 328 329 330 339 340 340 340 342 341 341 341 348 348 348 344 345 346 351 347
252 166 157 224 256 237 210 203 216 157 154 157 192 282 310 335 342 354 353 352 350 342 337 332 335 334 331 333 342 337 337 342 341 341 340 344 350 348 345 349 351 351 352 352
225 171 174 239 277 305 218 259 184 155 140 135 325 23 58 34 23 8 350 343 338 340 334 335 329 324 328 333 334 335 337 336 336 337 337 338 346 339 338 343 345 349 344 354
206 176 175 217 218 199 255 267 182 174 161 165 157 69 63 59 33 3 343 331 328 329 328 326 327 334 334 330 327 326 328 329 330 340 337 334 337 336 337 331 337 344 349 352
Height
1538 1544 1551 1549 1546 1545 1545 1546 1548 1543 1542 1545 1555 1563 1566 1565 1562 1562 1562 1561 1559 1557 1555 1551 1547 1542 1537 1532 1527 1522 1517 1512 1507 1502 1496 1492 1489 1487 1484 1482 1479 1477 1475 1472
1546 1552 1550 1547 1546 1547 1547 1549 1550 1547 1544 1550 1562 1567 1569 1568 1567 1567 1566 1564 1562 1559 1555 1551 1547 1542 1538 1533 1528 1522 1517 1512 1507 1502 1496 1492 1488 1485 1481 1477 1473 1471 1467 1465
1553 1555 1549 1548 1551 1552 1551 1551 1551 1551 1548 1551 1563 1571 1571 1572 1571 1570 1568 1567 1564 1562 1557 1553 1548 1543 1538 1533 1528 1522 1516 1511 1505 1499 1493 1488 1483 1478 1474 1469 1466 1463 1460 1457
1555 1554 1552 1553 1553 1554 1555 1547 1547 1548 1553 1557 1555 1571 1573 1574 1575 1573 1571 1569 1566 1563 1559 1554 1549 1543 1538 1532 1527 1520 1513 1507 1502 1496 1491 1485 1480 1474 1469 1466 1461 1458 1454 1450
1559 1557 1557 1557 1556 1553 1551 1545 1545 1545 1551 1555 1553 1566 1579 1574 1577 1577 1574 1571 1567 1564 1559 1554 1548 1543 1537 1530 1523 1516 1509 1504 1498 1493 1488 1483 1477 1472 1466 1461 1456 1451 1447 1443
1559 1558 1558 1559 1556 1554 1551 1548 1545 1550 1554 1557 1550 1563 1583 1579 1579 1577 1574 1571 1568 1563 1558 1553 1548 1541 1535 1528 1520 1513 1506 1500 1495 1489 1484 1478 1472 1466 1460 1455 1449 1444 1439 1436
1567 1563 1561 1560 1559 1557 1558 1562 1565 1563 1566 1560 1559 1572 1583 1580 1579 1577 1575 1572 1568 1563 1557 1551 1545 1538 1531 1524 1517 1510 1503 1497 1490 1484 1479 1473 1468 1461 1455 1450 1443 1437 1431 1427
1578 1575 1567 1564 1565 1566 1566 1569 1579 1581 1577 1569 1563 1579 1585 1581 1580 1578 1576 1573 1568 1562 1556 1550 1543 1536 1529 1522 1514 1507 1500 1493 1486 1479 1474 1469 1463 1457 1451 1445 1439 1432 1426 1420
1583 1579 1568 1565 1564 1565 1567 1571 1571 1579 1578 1577 1569 1579 1584 1580 1579 1577 1574 1570 1566 1560 1554 1547 1541 1534 1527 1520 1513 1506 1498 1490 1483 1477 1470 1465 1459 1453 1447 1440 1434 1427 1420 1414
1580 1581 1572 1567 1565 1565 1566 1568 1577 1577 1577 1574 1568 1578 1586 1583 1581 1577 1573 1568 1563 1556 1550 1543 1537 1530 1524 1518 1511 1504 1496 1489 1482 1475 1469 1463 1457 1451 1445 1438 1431 1423 1416 1409
1580 1582 1577 1572 1569 1571 1569 1572 1576 1580 1581 1585 1582 1587 1584 1583 1581 1578 1573 1568 1562 1555 1548 1542 1535 1529 1522 1516 1508 1501 1494 1487 1480 1474 1468 1461 1455 1449 1444 1437 1429 1420 1412 1405
1584 1586 1585 1577 1571 1570 1571 1575 1580 1587 1587 1587 1592 1592 1584 1583 1580 1577 1572 1566 1560 1555 1549 1542 1534 1527 1520 1513 1506 1499 1493 1486 1480 1474 1467 1461 1454 1449 1442 1435 1427 1418 1410 1402
1585 1587 1586 1576 1577 1578 1578 1578 1578 1583 1590 1593 1594 1592 1582 1580 1575 1570 1566 1560 1555 1550 1544 1538 1532 1526 1519 1512 1505 1499 1492 1486 1480 1473 1466 1460 1454 1448 1441 1434 1427 1419 1410 1402
1585 1589 1589 1583 1582 1585 1584 1582 1579 1582 1593 1596 1594 1593 1584 1579 1574 1568 1563 1558 1553 1549 1543 1537 1532 1526 1519 1512 1505 1498 1492 1486 1480 1473 1466 1460 1453 1447 1442 1435 1428 1421 1413 1405
1586 1591 1588 1587 1587 1586 1585 1585 1582 1584 1590 1596 1595 1591 1585 1581 1576 1569 1563 1557 1553 1548 1543 1537 1532 1525 1519 1511 1504 1498 1492 1486 1480 1473 1466 1460 1453 1448 1442 1436 1430 1423 1417 1410
1587 1591 1590 1589 1587 1587 1589 1588 1587 1588 1589 1590 1589 1588 1582 1578 1572 1565 1559 1555 1551 1547 1542 1537 1531 1525 1518 1511 1505 1498 1492 1486 1480 1473 1466 1460 1453 1447 1441 1436 1431 1425 1420 1414
1590 1592 1593 1597 1595 1588 1596 1592 1590 1588 1587 1589 1590 1587 1579 1574 1568 1563 1558 1554 1551 1546 1541 1536 1531 1525 1518 1512 1506 1499 1493 1486 1480 1474 1467 1460 1454 1448 1442 1437 1432 1426 1422 1417
1591 1593 1597 1601 1599 1598 1596 1589 1588 1587 1586 1585 1584 1580 1576 1572 1567 1561 1557 1554 1550 1545 1540 1535 1530 1524 1518 1512 1506 1500 1493 1486 1480 1474 1467 1461 1455 1449 1444 1438 1433 1428 1423 1419
1589 1592 1600 1607 1603 1600 1593 1588 1586 1586 1584 1582 1579 1575 1570 1567 1562 1559 1556 1553 1549 1545 1540 1535 1529 1523 1517 1511 1505 1499 1492 1485 1479 1473 1467 1461 1456 1450 1445 1439 1434 1430 1425 1420
1590 1592 1601 1605 1603 1599 1592 1585 1582 1584 1583 1579 1576 1573 1570 1564 1561 1559 1555 1551 1547 1543 1538 1533 1527 1522 1516 1510 1504 1497 1491 1484 1478 1472 1467 1461 1456 1451 1445 1440 1436 1431 1427 1422
1592 1596 1601 1603 1607 1597 1587 1582 1583 1589 1586 1577 1574 1572 1569 1565 1564 1559 1554 1549 1545 1541 1536 1530 1525 1520 1515 1509 1503 1496 1490 1484 1478 1472 1466 1461 1455 1450 1446 1441 1436 1431 1427 1423
1591 1597 1599 1603 1608 1599 1581 1581 1583 1582 1577 1575 1572 1570 1567 1563 1559 1556 1551 1547 1542 1538 1533 1528 1523 1519 1513 1507 1501 1495 1489 1484 1477 1471 1465 1460 1455 1450 1445 1440 1435 1431 1428 1424
1585 1585 1586 1589 1587 1580 1579 1579 1579 1577 1575 1572 1570 1567 1564 1560 1556 1553 1549 1545 1540 1535 1531 1526 1522 1517 1512 1506 1500 1494 1489 1483 1477 1471 1465 1460 1456 1451 1445 1440 1435 1432 1428 1425
1578 1577 1579 1580 1578 1577 1577 1577 1576 1574 1572 1570 1567 1564 1560 1557 1554 1551 1547 1542 1538 1533 1529 1524 1519 1514 1509 1504 1499 1494 1489 1483 1477 1471 1466 1461 1456 1451 1446 1442 1437 1434 1430 1426
1574 1575 1577 1577 1575 1575 1575 1575 1573 1571 1569 1567 1565 1562 1558 1555 1552 1549 1545 1541 1536 1532 1528 1523 1518 1512 1508 1503 1498 1494 1488 1483 1477 1472 1466 1462 1457 1452 1447 1443 1439 1436 1432 1429
1570 1572 1575 1575 1572 1573 1573 1572 1571 1569 1567 1565 1562 1559 1556 1553 1550 1546 1543 1539 1535 1530 1526 1521 1516 1511 1507 1502 1498 1493 1488 1483 1477 1472 1466 1461 1457 1452 1447 1443 1439 1435 1433 1429